Terug naar catalogus

STARLINK-34785

ActiefCommunicatieVLEO
NORAD 65354·PAYLOAD·🇺🇸 United States

Gelanceerd Aug 28, 2025 vanaf Cape Canaveral Space Force Station

Loading…

Volgende Passages (komende 24 uur)

TLE

VersSource: CelesTrak SupGP

Epoch: Sep 14, 2026, 22:54 UTC

1 65354C 25190D   26257.95465278 -.00012329  00000+0 -36433-3 0  2575
2 65354  53.1602   5.6714 0001162  72.7214 170.7664 15.34391452    17

Volg STARLINK-34785 in realtime met AllMySat

Download on the App Store